SL-16 DEB

Satellite information

Favourite Embed

Satellite Type and Status

DEBRISIN ORBIT

Key statistics

Satellite SL-16 DEB at a glance.

Uptime

12001

Days in orbit

Revolutions

≈ 14.1

Per day

Orbit

LEO

Low Earth Orbit

Inclination

71.3

Latest

Satellite identification and parameters

Extended collection of information and parameters for SL-16 DEB.

Object identification

Identified? True

Debris? True

Object name: SL-16 DEB

International designator: 1992-093AM

Object number (NORAD): 22348

Object ID (CCSDS): 22348

Country: COMMONWEALTH OF INDEPENDENT STATES (CIS)

Current information (Y/N): Y

RCS size: SMALL

Orbital parameters

Period: 102.193 minutes

Inclination: 71.2594 deg

SMA: 7240.598 km

Apoapsis: 937.617 km

Periapsis: 787.309 km

RAAN: 314.4884 deg

Eccentricy: 0.0103795

Argument of periapsis: 7.1197 deg

Mean anomaly: 155.3558 deg

Mean motion: 14.09097688 rev/day

Mean motion (dot): 0.00000432 rev/day2

B* drag term: 0.00026138 1/REarth

Two-line elements (TLE)

Creation date: Nov. 2, 2025, 4:26 p.m.

Reference frame: TEME

Reference center: EARTH

Epoch: Nov. 2, 2025, 11:36 a.m. UTC

TLE line 0: 0 SL-16 DEB

TLE line 1: 1 22348U 92093AM 25306.48364531 .00000432 00000-0 26138-3 0 9994

TLE line 2: 2 22348 71.2594 314.4884 0103795 7.1197 155.3558 14.09097688681448

Live tracking on map

Real-time ground track for satellite SL-16 DEB.

In-orbit conjunctions

A list of the most updated potential collisions computed for object SL-16 DEB.

Target Orbit TCA Probability of collision Miss distance Type
CZ-6A DEB LEO 2025-08-13 01:22:02 0.0002329002 125.0 (m) DEBRIS
DELTA 1 DEB SSO 2024-09-20 08:43:25 0.0001286817 182.0 (m) DEBRIS

Associated space launch

Second generation ELING satellite

SL-16 DEB was lifted into orbit during the mission ‘Zenit-2 | Tselina-2 12’, on board a Zenit-2 space rocket.

The launch took place on Dec. 25, 1992, 5:56 a.m. from 45/1.

For more information about the launch, click the button.

Launch to space Zenit-2 | Tselina-2 12
Zenit-2 | Tselina-2 12

Agency: N/A

Status: Launch Successful

Launch date: Dec. 25, 1992, 5:56 a.m. UTC

Rocket: Zenit-2

Launch pad: 45/1

Location: Baikonur Cosmodrome, Republic of Kazakhstan

...

Latest news about this satellite

There are no fresh news available about this satellite. Check back as we update our databases every day.


Newsletter sign-up

Weekly statistics, charts and insights to help you stay on top of the space industry.